Find Kosmos-2013

NORAD ID: 19907 Int'l Des: 1989-025 Owner: UNKS Country: SU operational
LEOCIRCULAR

当前视图

正在加载3D地球...

About Kosmos-2013

Kosmos-2013 (NORAD 19907) is a satellite launched Mar 24, 1989 by UNKS of SU. It operates in LEO, CIRCULAR orbit with a mass of 60.00 kg.

即将过境

Passes for default location (London). Set your location on the main map for personalized predictions.

高度历史

Loading altitude history...

两行轨道根数

1 19907U 89025F 26163.82614963 .00000002 00000-0 12152-3 0 9993
2 19907 74.0111 12.4788 0009533 19.0984 353.2262 12.48177747695903
Epoch: Jun 12, 2026 • Age: 8 hours

当前状态

高度 1469.2 km
速度 7.13 km/s
星下点 -7.99°S, 57.12°E
发射日期 Mar 24, 1989
运行时间 37.2 years
类型 other

技术详情

分类 Payload
质量 60.00 kg
干质量 60.00 kg
总质量 60.00 kg
长度 0.80 m
直径 0.80 m
跨度 0.80 m
形状 Poly
制造商 NPOPM
平台类型 Strela-1 11F625
阶段状态 In Orbit
所有者/国家 UNKS/SU

Most Searched